Home   Weather   Northampton   Past weeks

Flag for United Kingdom Past Weather in Northampton, England, United Kingdom — Yesterday and Last 2 Weeks

Now
39 °F

Chilly.


Feels Like: 31 °F
Forecast: 32 / 48 °F
Wind: 14 mph from Northwest

Location: Wittering

Current Time: Apr 25, 2017 at 12:23:10 am

Latest Report: Apr 24, 2017 at 11:50 pm


Visibility: N/A

Pressure: 29.86 "Hg

Humidity: 61%

Dew Point: 27 °F

Location of NorthamptonLocation

Past Weather in Northampton — Graph

°F

Northampton Temperature Yesterday

Maximum temperature yesterday: 55 °F (at 1:50 pm)
Minimum temperature yesterday: 39 °F (at 10:50 pm)
Average temperature yesterday: 48 °F

High & Low Weather Summary for the Past Weeks

 TemperatureHumidityPressure
High59 °F (Apr 14, 2:50 pm)100% (Apr 17, 2:50 am)30.63 "Hg (Apr 17, 2:50 am)
Low32 °F (Apr 19, 5:50 am)38% (Apr 19, 3:50 pm)29.86 "Hg (Apr 24, 3:50 pm)
Average48 °F72%30.22 "Hg
* Reported Apr 9 10:50 pm — Apr 24 10:50 pm, Northampton, Weather by CustomWeather, © 2017

Note: Actual official high and low records may vary slightly from our data, if they occured in-between our weather recording intervals... More about our weather records

Advertising

Northampton Weather History for the Previous 24 Hours

Scroll right to see more
 ConditionsComfort  
Time TempWeatherWind HumidityBarometerVisibility
10:50 pm
Mon, Apr 24
39 °FChilly.15 mph56%29.86 "HgN/A
9:50 pm41 °FQuite cool.16 mph49%29.86 "HgN/A
8:50 pm43 °FQuite cool.15 mph53%29.86 "HgN/A
7:50 pm46 °FPassing clouds.18 mph43%29.86 "HgN/A
6:50 pm50 °FPartly sunny.24 mph40%29.86 "HgN/A
5:50 pm52 °FPartly sunny.20 mph47%29.86 "HgN/A
4:50 pm52 °FPartly sunny.16 mph58%29.86 "HgN/A
3:50 pm52 °FPartly sunny.15 mph72%29.86 "HgN/A
2:50 pm52 °FPartly sunny.17 mph67%29.89 "HgN/A
1:50 pm55 °FBroken clouds.22 mph59%29.89 "HgN/A
12:50 pm54 °FBroken clouds.18 mph67%29.92 "HgN/A
11:50 am54 °FBroken clouds.15 mph77%29.95 "HgN/A
10:50 am50 °FLight rain. Broken clouds.10 mph88%29.95 "HgN/A
9:50 am52 °FBroken clouds.13 mph77%29.98 "HgN/A
8:50 am50 °FPartly sunny.10 mph82%29.98 "HgN/A
7:50 am46 °FMostly cloudy.12 mph87%30.01 "HgN/A
6:50 am45 °FOvercast.12 mph87%30.01 "HgN/A
5:50 am45 °FOvercast.9 mph87%30.01 "HgN/A
4:50 am45 °FPartly cloudy.10 mph87%30.01 "HgN/A
3:50 am45 °FPassing clouds.12 mph81%30.04 "HgN/A
2:50 am43 °FQuite cool.8 mph81%30.07 "HgN/A
1:50 am43 °FQuite cool.8 mph81%30.07 "HgN/A
12:50 am43 °FQuite cool.9 mph81%30.09 "HgN/A
Weather by CustomWeather, © 2017

See weather overviewHow to use our weather pages